This is the latest recevied weather packets stored in our database for station/object KB7KFC-3. If no packets are shown the sender has not sent any weather packets the latest 10 day(s).
| Time | Temp. | Humidity | Pressure | Rain* | Wind** | Luminosity | Snow |
|---|---|---|---|---|---|---|---|
| 1777475129 | 20.56° C | 27% | 1016.6 hPa | 0 mm | - | - | - |
| 1777474949 | 20° C | 27% | 1016.6 hPa | 0 mm | - | - | - |
| 1777474768 | 19.44° C | 29% | 1016.6 hPa | 0 mm | - | - | - |
| 1777474588 | 19.44° C | 27% | 1016.6 hPa | 0 mm | - | - | - |
| 1777474409 | 19.44° C | 27% | 1016.5 hPa | 0 mm | - | - | - |
| 1777474228 | 18.89° C | 28% | 1016.5 hPa | 0 mm | - | - | - |
| 1777474048 | 18.89° C | 29% | 1016.5 hPa | 0 mm | - | - | - |
| 1777473868 | 18.89° C | 30% | 1016.5 hPa | 0 mm | - | - | - |
| 1777473687 | 18.33° C | 30% | 1016.5 hPa | 0 mm | - | - | - |
| 1777473508 | 18.33° C | 32% | 1016.5 hPa | 0 mm | - | - | - |
| 1777473327 | 17.78° C | 33% | 1016.4 hPa | 0 mm | - | - | - |
| 1777473149 | 17.78° C | 33% | 1016.4 hPa | 0 mm | - | - | - |
| 1777472969 | 17.78° C | 37% | 1016.4 hPa | 0 mm | - | - | - |
| 1777472789 | 17.22° C | 35% | 1016.4 hPa | 0 mm | - | - | - |
| 1777472609 | 17.22° C | 34% | 1016.3 hPa | 0 mm | - | - | - |
| 1777472428 | 17.22° C | 37% | 1016.2 hPa | 0 mm | - | - | - |
| 1777472248 | 16.67° C | 36% | 1016.3 hPa | 0 mm | - | - | - |
| 1777472068 | 16.67° C | 37% | 1016.3 hPa | 0 mm | - | - | - |
| 1777471888 | 16.67° C | 46% | 1016.3 hPa | 0 mm | - | - | - |
| 1777471709 | 16.67° C | 41% | 1016.2 hPa | 0 mm | - | - | - |
| 1777471529 | 16.67° C | 49% | 1016.2 hPa | 0 mm | - | - | - |
| 1777471348 | 16.11° C | 43% | 1016.2 hPa | 0 mm | - | - | - |
| 1777471169 | 16.11° C | 38% | 1016.2 hPa | 0 mm | - | - | - |
| 1777470989 | 16.11° C | 42% | 1016.2 hPa | 0 mm | - | - | - |
| 1777470808 | 15.56° C | 37% | 1016.2 hPa | 0 mm | - | - | - |
* Rain latest hour (hover to see other rain measurements)
** Current wind speed in m/s (hover to see current wind gust speed)